Regional Weather Roundup
Issued by NWS

Home | Current Version | Previous Version | Text Only | Print | Product List | Glossary Off
Versions: 1 2 3 4 5 6 7 8 9 10 11 12 13 14 15 16 17 18 19 20 21 22 23 24 25 26 27 28 29 30 31 32 33 34 35 36 37 38 39 40 41 42 43 44 45 46 47 48 49 50

000
ASUS43 KDMX 030507
RWRIA

WEATHER ROUNDUP FOR IOWA
NATIONAL WEATHER SERVICE DES MOINES IA
1200 AM CDT MON AUG 03 2015

NOTE: "FAIR" INDICATES FEW OR NO CLOUDS BELOW 12,000 FEET WITH NO
SIGNIFICANT WEATHER AND/OR OBSTRUCTIONS TO VISIBILITY.

* - THESE STATIONS ARE NOT NWS STATIONS...THUS NOT UNDER NWS
QUALITY CONTROL.  THEY ALSO DO NOT REPORT WEATHER SUCH
AS PRECIPITATION OR FOG.

IAZ001>003-012>014-020>022-031>034-043>046-030600-
   NORTHWEST IOWA

CITY           SKY/WX    TMP DP  RH WIND       PRES   REMARKS
CARROLL *      CLEAR     68  64  88 N5        29.90R
CHEROKEE *     CLEAR     66  64  94 CALM      29.90S
DENISON *      PTCLDY    72  66  83 NE8       29.88R
LE MARS *      CLEAR     66  63  88 N5        29.92R
ORANGE CITY *  CLEAR     66  61  82 NE3       29.92S
SHELDON *      CLEAR     61  59  94 CALM      29.91R
SPENCER        CLEAR     62  57  83 NW3       29.91S
STORM LAKE *   CLEAR     66  61  82 N7        29.92R
$$

IAZ055>058-069>071-079>083-090>094-030600-
   SOUTHWEST IOWA

CITY           SKY/WX    TMP DP  RH WIND       PRES   REMARKS
ATLANTIC *     CLEAR     70  68  94 CALM      29.87F
AUDUBON *      CLEAR     70  66  88 CALM      29.90R
CLARINDA *     MOCLDY    75  70  83 S12       29.87F
COUNCIL BLFS *   N/A     75  72  88 CALM      29.89R
CRESTON *      CLEAR     68  63  83 NW6       29.88R
HARLAN  *      PTCLDY    70  70 100 CALM      29.90F
LAMONI         LGT RAIN  72  59  63 SW9       29.85F
RED OAK *      CLEAR     70  70 100 CALM      29.87R
SHENANDOAH *   MOCLDY    77  73  88 E3        29.86S
$$

IAZ047>049-059>061-072>074-084-030600-
   CENTRAL IOWA

CITY           SKY/WX    TMP DP  RH WIND       PRES   REMARKS
AMES           CLEAR     70  62  76 N8        29.87R
ANKENY *       CLEAR     75  66  73 N6        29.85S
CHARITON *     CLEAR     68  64  88 W7        29.85R
DES MOINES     PTCLDY    74  63  68 N8        29.85R
GRINNELL*      CLEAR     68  63  83 CALM      29.85S
KNOXVILLE *    CLEAR     68  63  83 W5        29.82S
MARSHALLTOWN   CLEAR     68  63  84 NW8       29.85R
PELLA *        CLEAR     71  65  83 NW9       29.84S
PERRY *          N/A     72  68  88 N6        29.88R
$$

IAZ004>006-015-016-023>025-035-036-030600-
   NORTH CENTRAL IOWA

CITY           SKY/WX    TMP DP  RH WIND       PRES   REMARKS
ALGONA *       CLEAR     64  59  82 N6        29.90R
CLARION *      CLEAR     64  59  82 N6        29.89R
ESTHERVILLE    CLEAR     60  57  89 NW7       29.90R
FORT DODGE *   CLEAR     66  59  77 CALM      29.90R
MASON CITY     CLEAR     64  58  80 NW8       29.89R
FOREST CITY *  CLEAR     63  55  77 NW6       29.89R
IOWA FALLS *     N/A     68  61  77 NW6       29.88R
$$

IAZ007>011-017>019-026>030-037>042-050>054-066-030600-
   NORTHEAST IOWA

CITY           SKY/WX    TMP DP  RH WIND       PRES   REMARKS
CEDAR RAPIDS   CLEAR     70  67  90 W9        29.81R
CHARLES CITY * CLEAR     66  63  88 NW10      29.86R
CLINTON *      CLEAR     73  70  88 NW9       29.79R
DECORAH *      PTCLDY    70  59  68 NW9G16    29.82R
DUBUQUE        PTCLDY    74  63  68 NW10      29.79R
MONTICELLO *   CLEAR     73  64  73 NW8       29.79R
OELWEIN *        N/A    N/A N/A N/A MISG      29.83R
WATERLOO       CLEAR     70  61  73 NW9       29.83R
$$

IAZ064-065-067-068-078-030600-
   EAST CENTRAL IOWA

CITY           SKY/WX    TMP DP  RH WIND       PRES   REMARKS
DAVENPORT      MOCLDY    74  62  66 W7        29.78R
IOWA CITY      CLEAR     72  62  71 W12       29.82R
MT. PLEASANT * CLEAR     77  57  50 W5        29.80S
MUSCATINE *    CLEAR     73  61  64 W15G21    29.79R
QUAD CITIES    CLEAR     76  62  62 W12       29.77R
$$

IAZ062-063-075>077-085>089-095>099-030600-
   SOUTHEAST IOWA

CITY           SKY/WX    TMP DP  RH WIND       PRES   REMARKS
BURLINGTON     CLEAR     73  71  93 SW3       29.79R
FAIRFIELD *    CLEAR     68  59  73 W6        29.81S
FORT MADISON * CLEAR     73  63  68 CALM      29.81S
KEOKUK *       CLEAR     73  59  60 W5        29.79S
OSKALOOSA *      N/A     64  61  88 W6        29.84R
CENTERVILLE *  CLEAR     66  63  88 SW5       29.86S
OTTUMWA        CLEAR     68  60  75 W8        29.81S
WASHINGTON *   CLEAR     72  63  73 W8G14     29.82R
$$

ABBREVIATIONS USED IN REMARKS
   TC - TEMPERATURES IN CELSIUS
  WCI - WIND CHILL INDEX
   HX - HEAT INDEX
  VSB - VISIBILITY
$$



USA.gov is the U.S. government's official web portal to all federal, state and local government web resources and services.